Change the Weather History Date:

Sunday, January 5, 2014

  Actual Average (KBFD) Record (KBFD)
Temperature  
Mean Temperature 30 °F 21 °F  
Max Temperature 41 °F 29 °F 57 °F (1998)
Min Temperature 19 °F 14 °F -11 °F (1969)
Degree Days  
Heating Degree Days 35 38  
Month to date heating degree days 190  
Since 1 July heating degree days 3246  
Cooling Degree Days 0 0  
Month to date cooling degree days 0  
Year to date cooling degree days 0  
Moisture  
Dew Point 21 °F    
Average Humidity 66    
Maximum Humidity 93    
Minimum Humidity 44    
Precipitation  
Precipitation 0.04 in 0.12 in 0.87 in (2007)
Month to date precipitation 0.59  
Year to date precipitation 0.59  
Sea Level Pressure  
Sea Level Pressure 29.91 in    
Wind  
Wind Speed 9 mph (SSE)    
Max Wind Speed 26 mph    
Max Gust Speed 43 mph    
Visibility 10 miles    
Events Rain    
T = Trace of Precipitation, MM = Missing Value Source: NWS Daily Summary

Daily Weather History Graph

Daily Weather History Graph

Search for Another Location

Airport or City:

Trip Planner

Search our weather history database for the weather conditions in past years. The results will help you decide how hot, cold, wet, or windy it might be!

Date:

Astronomy

Jan. 05, 2014 Rise Set
Actual Time 7:40 AM EST 4:54 PM EST
Civil Twilight 7:08 AM EST 5:26 PM EST
Nautical Twilight 6:33 AM EST 6:01 PM EST
Astronomical Twilight 6:00 AM EST 6:34 PM EST
Moon 10:15 AM EST (1/5) 10:26 PM EST (1/5)
Length of Visible Light 10h 17m
Length of Day
9h 14m
Waxing Crescent, 24% of the Moon is Illuminated
Jan 5
Waxing Crescent
Jan 7
First Quarter
Jan 15
Full
Jan 24
Last Quarter
Jan 30
New

Hourly Weather History & Observations

Time (EST) Temp. Windchill Dew Point Humidity Pressure Visibility Wind Dir Wind Speed Gust Speed Precip Events Conditions
12:56 AM 24.1 °F 18.2 °F 5.0 °F 44% 30.14 in 10.0 mi SSW 4.6 mph - N/A   Mostly Cloudy
1:56 AM 24.1 °F 17.0 °F 5.0 °F 44% 30.14 in 10.0 mi South 5.8 mph - N/A   Clear
2:56 AM 24.1 °F 19.7 °F 5.0 °F 44% 30.14 in 10.0 mi South 3.5 mph - N/A   Clear
3:56 AM 23.0 °F 17.0 °F 5.0 °F 46% 30.13 in 10.0 mi South 4.6 mph - N/A   Clear
4:56 AM 21.9 °F 17.2 °F 5.0 °F 48% 30.12 in 10.0 mi SSE 3.5 mph - N/A   Scattered Clouds
5:56 AM 21.0 °F 14.6 °F 5.0 °F 50% 30.15 in 10.0 mi SSE 4.6 mph - N/A   Partly Cloudy
6:56 AM 19.9 °F 12.1 °F 5.0 °F 52% 30.16 in 10.0 mi SSE 5.8 mph - N/A   Clear
7:56 AM 19.9 °F 12.1 °F 5.0 °F 52% 30.17 in 10.0 mi SSE 5.8 mph - N/A   Clear
8:56 AM 24.1 °F 18.2 °F 7.0 °F 48% 30.16 in 10.0 mi SSE 4.6 mph - N/A   Clear
9:56 AM 27.0 °F 18.7 °F 9.0 °F 47% 30.14 in 10.0 mi SSE 8.1 mph - N/A   Partly Cloudy
10:56 AM 30.9 °F 25.2 °F 12.0 °F 46% 30.10 in 10.0 mi SE 5.8 mph - N/A   Mostly Cloudy
11:56 AM 36.0 °F 29.6 °F 19.9 °F 52% 30.04 in 10.0 mi SSE 8.1 mph - N/A   Overcast
12:56 PM 37.0 °F 33.3 °F 23.0 °F 57% 29.99 in 10.0 mi Variable 4.6 mph - N/A   Overcast
1:56 PM 37.0 °F 31.6 °F 25.0 °F 62% 29.97 in 10.0 mi South 6.9 mph - N/A   Overcast
2:56 PM 37.0 °F 33.3 °F 23.0 °F 57% 29.95 in 10.0 mi ENE 4.6 mph - 0.00 in   Overcast
3:56 PM 36.0 °F 29.0 °F 25.0 °F 64% 29.91 in 10.0 mi SE 9.2 mph - 0.00 in   Mostly Cloudy
4:28 PM 37.4 °F 30.3 °F 28.4 °F 70% 29.81 in 10.0 mi SSE 10.4 mph - N/A   Mostly Cloudy
4:56 PM 37.9 °F 29.2 °F 32.0 °F 79% 29.86 in 10.0 mi SSE 15.0 mph 21.9 mph N/A   Overcast
5:56 PM 36.0 °F 26.7 °F 32.0 °F 86% 29.82 in 10.0 mi SSE 15.0 mph 23.0 mph N/A   Overcast
6:56 PM 36.0 °F 25.0 °F 33.1 °F 89% 29.78 in 7.0 mi SSE 20.7 mph 32.2 mph 0.01 in Rain Light Rain
7:15 PM 35.6 °F 25.2 °F 33.8 °F 93% 29.69 in 9.0 mi SSE 18.4 mph 26.5 mph 0.03 in Rain Light Rain
7:56 PM 37.0 °F 27.0 °F 34.0 °F 89% 29.74 in 10.0 mi South 18.4 mph 39.1 mph 0.03 in   Overcast
8:21 PM 37.4 °F 26.9 °F 35.6 °F 93% 29.65 in 10.0 mi South 20.7 mph 32.2 mph N/A   Overcast
8:56 PM 39.0 °F 28.3 °F 36.0 °F 89% 29.67 in 10.0 mi SSE 24.2 mph 33.4 mph N/A   Overcast
9:56 PM 41.0 °F 30.5 °F 37.0 °F 86% 29.59 in 10.0 mi SSE 26.5 mph 36.8 mph N/A   Overcast
10:56 PM 41.0 °F 31.9 °F 37.9 °F 89% 29.53 in 10.0 mi South 19.6 mph 38.0 mph N/A   Overcast
11:12 PM 41.0 °F 31.6 °F 37.4 °F 87% 29.48 in 10.0 mi South 20.7 mph 42.6 mph N/A   Overcast
11:56 PM 41.0 °F 32.5 °F 37.9 °F 89% 29.49 in 7.0 mi South 17.3 mph 34.5 mph 0.00 in Rain Light Rain